TimeEST,TemperatureF,Dew PointF,Humidity,Sea Level PressureIn,VisibilityMPH,Wind Direction,Wind SpeedMPH,Gust SpeedMPH,PrecipitationIn,Events,Conditions,WindDirDegrees,DateUTC
12:54 AM,30.9,16.0,54,30.29,-9999.0,South,3.5,-,N/A,,Unknown,190,2013-02-11 05:54:00
1:54 AM,30.9,17.1,57,30.26,-9999.0,SSW,4.6,-,N/A,,Unknown,200,2013-02-11 06:54:00
2:54 AM,32.0,18.0,56,30.24,-9999.0,Variable,3.5,-,N/A,,Unknown,0,2013-02-11 07:54:00
3:54 AM,33.1,24.1,70,30.20,-9999.0,Variable,5.8,-,N/A,,Unknown,0,2013-02-11 08:54:00
4:54 AM,33.1,28.9,85,30.17,-9999.0,SW,5.8,-,0.01,,Unknown,230,2013-02-11 09:54:00
5:54 AM,34.0,30.9,89,30.14,-9999.0,Calm,Calm,-,0.02,,Unknown,0,2013-02-11 10:54:00
6:54 AM,34.0,32.0,92,30.10,-9999.0,Calm,Calm,-,0.04,,Unknown,0,2013-02-11 11:54:00
7:54 AM,33.1,32.0,96,30.07,-9999.0,Calm,Calm,-,0.06,,Unknown,0,2013-02-11 12:54:00
8:54 AM,34.0,33.1,96,30.04,-9999.0,Calm,Calm,-,0.05,,Unknown,0,2013-02-11 13:54:00
9:54 AM,34.0,33.1,96,30.00,-9999.0,Calm,Calm,-,0.03,,Unknown,0,2013-02-11 14:54:00
10:54 AM,37.0,35.1,93,29.96,-9999.0,South,3.5,-,N/A,,Unknown,180,2013-02-11 15:54:00
11:54 AM,39.9,37.9,93,29.90,-9999.0,South,5.8,-,N/A,,Unknown,180,2013-02-11 16:54:00
12:54 PM,41.0,37.9,89,29.84,-9999.0,Variable,4.6,-,N/A,,Unknown,0,2013-02-11 17:54:00
1:54 PM,39.9,37.9,93,29.82,-9999.0,SSW,8.1,-,N/A,,Unknown,210,2013-02-11 18:54:00
2:54 PM,39.9,37.9,93,29.78,-9999.0,SW,4.6,-,N/A,,Unknown,220,2013-02-11 19:54:00
3:54 PM,39.9,39.0,97,29.74,-9999.0,SSW,4.6,-,N/A,,Unknown,200,2013-02-11 20:54:00
4:54 PM,39.0,39.0,100,29.73,-9999.0,Variable,3.5,-,N/A,,Unknown,0,2013-02-11 21:54:00
5:54 PM,37.0,36.0,96,29.71,-9999.0,Calm,Calm,-,N/A,,Unknown,0,2013-02-11 22:54:00
6:54 PM,36.0,35.1,97,29.69,-9999.0,Calm,Calm,-,N/A,,Unknown,0,2013-02-11 23:54:00
7:54 PM,34.0,33.1,96,29.69,-9999.0,Calm,Calm,-,N/A,,Unknown,0,2013-02-12 00:54:00
8:54 PM,35.1,34.0,96,29.72,-9999.0,North,3.5,-,0.01,,Unknown,360,2013-02-12 01:54:00
9:54 PM,35.1,34.0,96,29.73,-9999.0,Calm,Calm,-,N/A,,Unknown,0,2013-02-12 02:54:00
10:54 PM,35.1,34.0,96,29.74,-9999.0,Calm,Calm,-,N/A,,Unknown,0,2013-02-12 03:54:00
11:54 PM,32.0,30.9,96,29.74,-9999.0,Calm,Calm,-,N/A,,Unknown,0,2013-02-12 04:54:00